Погода в Рио Майо

Аргентина     45°40′18″S   70°16′24″W
темп.,
°C
ветер,
м/с
пор.,
м/с
влажн.,
%
обл.,
%
осадки,
мм/ч
давл.,
гПа
погр.,
м
5 мая, ср
ср500:00+5юз33555 0.0 102625
03:00+5ююз335381 0.0 102711
06:00+4ююв1155100 0.0 102710
09:00+3ссз22585 0.0 102710
12:00+8ссз34405 0.0 1027301
15:00+12ссз4528100 0.0 1025625
18:00+11с4433100 0.0 102361
21:00+8ссз3340100 0.0 102325
6 мая, чт
чт600:00+8зюз2241100 0.0 102312
03:00+6зюз3349100 0.0 102315
06:00+6ююз2247100 0.0 102210
09:00+5ю225126 0.0 102310
12:00+9юз11378 0.0 1023283
15:00+12всв11305 0.0 1021566
18:00+11всв223447 0.0 102018
21:00+9всв224082 0.0 102010
7 мая, пт
пт700:00+7всв23485 0.0 101911
03:00+6св22525 0.0 101710
06:00+4св11555 0.0 101610
09:00+4св225490 0.0 101510
12:00+10с353476 0.0 1014346
15:00+13ссз5625100 0.0 1011728
18:00+12ссз3328100 0.0 101021
21:00+10сз4535100 0.0 101055
8 мая, сб
сб800:00+8зсз3351100 0.0 101134
03:00+7сз4453100 0.0 101137
06:00+6сз4656100 0.0 101174
09:00+7з5956100 0.0 1012138
12:00+10з694471 0.0 1012373
15:00+12з89400 0.0 1012955
18:00+10з685011 0.0 1014428
21:00+7зюз5868100 0.0 1017215
9 мая, вс
вс900:00+6зюз5875100 0.0 1019172
03:00+5зюз4777100 0.0 1021132
06:00+5зюз3376100 0.0 102245
09:00+4юз227799 0.0 102415
12:00+8юз115962 0.0 1025308
15:00+10юв114983 0.0 1024741
18:00+10в225010 0.0 102418
21:00+8в225728 0.0 102611